Retour au catalogue

LANDSAT 7

ActifScienceSSO
NORAD 25682·PAYLOAD·🇺🇸 United States

Lancé Apr 15, 1999 depuis Vandenberg Space Force Base

Loading…

Prochains Passages (prochaines 24 heures)

TLE

FraisSource: Space-Track

Époque: Sep 14, 2026, 13:52 UTC

1 25682U 99020A   26257.57845811  .00000286  00000-0  63068-4 0  9997
2 25682  97.8637 257.1432 0001544 100.7931 331.9321 14.63980648458923

Suivez LANDSAT 7 en temps réel avec AllMySat

Download on the App Store